TG9SRP-22 Weather Reports


time (UTC)temp
C
wind
direction
speed
KPH
gust
KPH
rain 1hr
cm
rain 24hr
cm
rain mn
cm
humidity
%
barometer
mb
20260507061716 14 180 17.7 0.0 0.00 0.00 0.00 92 1016.0
20260507060716 15 180 17.7 0.0 0.00 0.00 0.00 91 1016.0
20260507055715 16 180 17.7 0.0 0.00 0.00 0.00 90 1016.0
20260507054714 17 180 17.7 0.0 0.00 0.00 0.00 90 1016.0
20260507053714 15 180 17.7 0.0 0.00 0.00 0.00 89 1016.0
20260507052713 16 180 17.7 0.0 0.00 0.00 0.00 89 1016.0
20260507051712 16 180 17.7 0.0 0.00 0.00 0.00 89 1016.0
20260507050712 17 180 17.7 0.0 0.00 0.00 0.00 89 1016.0
20260507045711 17 180 17.7 0.0 0.00 0.00 0.00 89 1016.0
20260507044710 15 180 17.7 0.0 0.00 0.00 0.00 90 1016.0
20260507043710 16 180 17.7 0.0 0.00 0.00 0.00 89 1016.0
20260507042709 17 180 17.7 0.0 0.00 0.00 0.00 88 1016.0
20260507041708 15 180 17.7 0.0 0.00 0.00 0.00 89 1016.0
20260507040707 16 180 17.7 0.0 0.00 0.00 0.00 87 1016.0
20260507035707 17 180 17.7 0.0 0.00 0.00 0.00 86 1016.0
20260507034706 18 180 17.7 0.0 0.00 0.00 0.00 86 1016.0
20260507033705 16 180 17.7 0.0 0.00 0.00 0.00 87 1016.0
20260507032705 16 180 17.7 0.0 0.00 0.00 0.00 88 1015.0
20260507031704 16 180 17.7 0.0 0.00 0.00 0.00 88 1015.0
20260507030703 17 180 17.7 0.0 0.00 0.00 0.00 89 1015.0
20260507025703 17 180 17.7 0.0 0.00 0.00 0.00 90 1015.0
20260507024702 18 180 17.7 0.0 0.00 0.00 0.00 90 1015.0
20260507023702 16 180 20.9 0.0 0.00 0.00 0.00 89 1015.0
20260507022701 16 180 20.9 0.0 0.00 0.00 0.00 89 1014.0
20260507021700 17 180 20.9 0.0 0.00 0.00 0.00 89 1014.0
20260507020700 17 180 20.9 0.0 0.00 0.00 0.00 89 1014.0
20260507015659 18 180 20.9 0.0 0.00 0.00 0.00 89 1014.0
20260507014659 16 180 20.9 0.0 0.00 0.00 0.00 90 1014.0
20260507013658 17 180 20.9 0.0 0.00 0.00 0.00 89 1014.0
20260507012657 18 180 20.9 0.0 0.00 0.00 0.00 88 1013.0
20260507011657 16 180 17.7 0.0 0.00 0.00 0.00 87 1013.0
20260507010656 17 180 17.7 0.0 0.00 0.00 0.00 85 1013.0
20260507005656 18 180 17.7 0.0 0.00 0.00 0.00 83 1013.0
20260507004655 18 180 17.7 0.0 0.00 0.00 0.00 83 1013.0
20260507003655 20 180 17.7 0.0 0.00 0.00 0.00 81 1013.0
20260507002654 18 180 17.7 0.0 0.00 0.00 0.00 80 1012.0
20260507001653 19 180 17.7 0.0 0.00 0.00 0.00 79 1012.0
20260507000653 20 180 17.7 0.0 0.00 0.00 0.00 78 1012.0
20260506235652 20 180 17.7 0.0 0.00 0.00 0.00 77 1012.0
20260506234651 21 180 17.7 0.0 0.00 0.00 0.00 73 1012.0
20260506233651 21 180 17.7 0.0 0.00 0.00 0.00 73 1012.0
20260506232650 22 180 17.7 0.0 0.00 0.00 0.00 73 1011.0
20260506231650 21 180 17.7 0.0 0.00 0.00 0.00 81 1011.0
20260506230649 21 180 17.7 0.0 0.00 0.00 0.00 81 1011.0
20260506225648 22 180 17.7 0.0 0.00 0.00 0.00 81 1011.0
20260506224648 22 180 17.7 0.0 0.00 0.00 0.00 81 1011.0
20260506223647 23 180 17.7 0.0 0.00 0.00 0.00 76 1011.0
20260506222647 22 200 24.1 0.0 0.00 0.00 0.00 76 1011.0
20260506221646 23 200 24.1 0.0 0.00 0.00 0.00 75 1011.0
20260506220646 23 200 24.1 0.0 0.00 0.00 0.00 74 1011.0
20260506215645 25 200 25.7 0.0 0.00 0.00 0.00 73 1011.0
20260506214645 25 200 25.7 0.0 0.00 0.00 0.00 72 1011.0
20260506213644 22 200 24.1 0.0 0.00 0.00 0.00 77 1011.0
20260506212643 23 200 24.1 0.0 0.00 0.00 0.00 77 1011.0
20260506211643 24 200 25.7 0.0 0.00 0.00 0.00 78 1011.0
20260506210031 21 183 9.7 11.3 0.00 0.00 0.00 10 1012.0
20260506205031 21 183 8.0 11.3 0.00 0.00 0.00 10 1012.0
20260506204030 22 183 8.0 11.3 0.00 0.00 0.00 10 1012.0
20260506203029 23 183 9.7 11.3 0.00 0.00 0.00 10 1012.0
20260506202019 23 147 8.0 9.7 0.00 0.00 0.00 84 1012.0
20260506201019 23 180 17.7 0.0 0.00 0.00 0.00 71 1012.0
20260506200018 23 180 17.7 0.0 0.00 0.00 0.00 71 1012.0
20260506195018 24 180 17.7 0.0 0.00 0.00 0.00 66 1012.0
20260506194017 24 180 17.7 0.0 0.00 0.00 0.00 66 1012.0
20260506193016 25 180 17.7 0.0 0.00 0.00 0.00 64 1012.0
20260506192016 26 180 17.7 0.0 0.00 0.00 0.00 66 1012.0
20260506191015 26 180 17.7 0.0 0.00 0.00 0.00 69 1012.0
20260506190015 23 123 4.8 9.7 0.00 0.00 0.00 77 1012.0
20260506185014 24 180 17.7 0.0 0.00 0.00 0.00 55 1012.0
20260506184013 25 180 17.7 0.0 0.00 0.00 0.00 52 1012.0
20260506183013 26 180 17.7 0.0 0.00 0.00 0.00 48 1012.0
20260506182012 27 180 17.7 0.0 0.00 0.00 0.00 48 1013.0
20260506181012 25 180 17.7 0.0 0.00 0.00 0.00 47 1013.0
20260506180011 26 360 6.4 0.0 0.00 0.00 0.00 47 1013.0
20260506175010 25 360 6.4 0.0 0.00 0.00 0.00 47 1013.0
20260506172923 26 360 6.4 0.0 0.00 0.00 0.00 47 1014.0
20260506171922 25 360 6.4 0.0 0.00 0.00 0.00 47 1014.0
20260506170921 26 360 6.4 0.0 0.00 0.00 0.00 47 1014.0
20260506165921 23 190 14.5 0.0 0.00 0.00 0.00 57 1014.0
20260506164920 23 190 14.5 0.0 0.00 0.00 0.00 57 1014.0
20260506163920 23 190 14.5 0.0 0.00 0.00 0.00 57 1015.0
20260506162919 23 190 14.5 0.0 0.00 0.00 0.00 57 1015.0
20260506161956 22 190 14.5 0.0 0.00 0.00 0.00 57 1015.0
20260506160955 23 190 14.5 0.0 0.00 0.00 0.00 57 1015.0
20260506155954 22 0 0.0 0.0 0.00 0.00 0.00 69 1015.0
20260506154954 22 0 0.0 0.0 0.00 0.00 0.00 69 1015.0
20260506153953 22 0 0.0 0.0 0.00 0.00 0.00 69 1015.0
20260506152952 21 0 0.0 0.0 0.00 0.00 0.00 76 1015.0
20260506151952 21 0 0.0 0.0 0.00 0.00 0.00 70 1015.0
20260506150951 22 0 0.0 0.0 0.00 0.00 0.00 69 1015.0
20260506145951 20 0 0.0 0.0 0.00 0.00 0.00 78 1015.0
20260506144950 20 0 0.0 0.0 0.00 0.00 0.00 78 1015.0
20260506143950 19 0 0.0 0.0 0.00 0.00 0.00 78 1015.0
20260506142949 19 0 0.0 0.0 0.00 0.00 0.00 78 1015.0
20260506141949 20 0 0.0 0.0 0.00 0.00 0.00 78 1015.0
20260506140948 20 0 0.0 0.0 0.00 0.00 0.00 78 1015.0
20260506135947 18 0 0.0 0.0 0.00 0.00 0.00 88 1015.0
20260506134947 18 0 0.0 0.0 0.00 0.00 0.00 88 1015.0
20260506133946 16 0 0.0 0.0 0.00 0.00 0.00 90 1015.0
20260506132945 17 0 0.0 0.0 0.00 0.00 0.00 90 1015.0
20260506131945 17 0 0.0 0.0 0.00 0.00 0.00 90 1015.0
20260506130944 16 20 6.4 0.0 0.00 0.00 0.00 95 1015.0
20260506125944 16 20 6.4 0.0 0.00 0.00 0.00 95 1015.0
20260506124943 16 20 6.4 0.0 0.00 0.00 0.00 95 1015.0
20260506123943 14 20 8.0 0.0 0.00 0.00 0.00 94 1015.0
20260506122942 14 20 8.0 0.0 0.00 0.00 0.00 94 1015.0
20260506121942 15 20 8.0 0.0 0.00 0.00 0.00 94 1015.0
20260506120941 15 20 8.0 0.0 0.00 0.00 0.00 93 1015.0
20260506115941 16 20 9.7 0.0 0.00 0.00 0.00 92 1015.0
20260506114940 12 20 8.0 0.0 0.00 0.00 0.00 95 1015.0
20260506113939 13 20 8.0 0.0 0.00 0.00 0.00 94 1015.0
20260506112939 14 20 8.0 0.0 0.00 0.00 0.00 93 1015.0
20260506111938 15 20 8.0 0.0 0.00 0.00 0.00 92 1015.0
20260506110938 16 20 9.7 0.0 0.00 0.00 0.00 92 1016.0
20260506105937 13 360 8.0 0.0 0.00 0.00 0.00 93 1016.0
20260506104937 14 360 8.0 0.0 0.00 0.00 0.00 92 1016.0
20260506103936 14 360 8.0 0.0 0.00 0.00 0.00 92 1016.0
20260506102935 15 360 8.0 0.0 0.00 0.00 0.00 91 1014.0
20260506101935 16 360 9.7 0.0 0.00 0.00 0.00 90 1014.0
20260506100934 16 360 9.7 0.0 0.00 0.00 0.00 90 1014.0
20260506095934 17 360 6.4 0.0 0.00 0.00 0.00 90 1015.0
20260506094933 15 360 6.4 0.0 0.00 0.00 0.00 90 1015.0
20260506093933 16 360 6.4 0.0 0.00 0.00 0.00 89 1015.0
20260506092932 17 360 6.4 0.0 0.00 0.00 0.00 88 1014.0
20260506091931 18 360 6.4 0.0 0.00 0.00 0.00 88 1014.0
20260506090931 13 297 1.6 1.6 0.00 0.00 0.00 98 1015.0
20260506085930 14 297 1.6 1.6 0.00 0.00 0.00 98 1015.0
20260506084930 15 297 1.6 1.6 0.00 0.00 0.00 97 1015.0
20260506083929 16 297 1.6 3.2 0.00 0.00 0.00 96 1015.0
20260506082928 14 288 1.6 1.6 0.00 0.00 0.00 96 1015.0
20260506081928 15 288 1.6 1.6 0.00 0.00 0.00 95 1015.0
20260506080927 16 288 1.6 1.6 0.00 0.00 0.00 95 1015.0
20260506072844 16 0 0.0 0.0 0.00 0.00 0.00 94 1014.0
20260506071843 17 0 0.0 0.0 0.00 0.00 0.00 92 1014.0
20260506070843 15 0 0.0 0.0 0.00 0.00 0.00 80 1014.0